Time,TemperatureF,DewpointF,PressureIn,WindDirection,WindDirectionDegrees,WindSpeedMPH,WindSpeedGustMPH,Humidity,HourlyPrecipIn,Conditions,Clouds,dailyrainin,SoftwareType,DateUTC
2013-03-21 00:00:00,19.6,12.0,29.22,WNW,282,4.2,4.2,72,0.00,RA,,0.00,WeatherDisplay:10.37,2013-03-21 04:00:00,
2013-03-21 00:01:00,19.6,12.3,29.22,West,278,4.6,4.6,73,0.00,RA,,0.00,WeatherDisplay:10.37,2013-03-21 04:01:00,
2013-03-21 00:06:00,19.4,11.8,29.21,WSW,256,3.5,3.5,72,0.00,RA,,0.00,WeatherDisplay:10.37,2013-03-21 04:06:00,
2013-03-21 00:11:00,19.4,12.2,29.21,WNW,282,4.6,4.6,73,0.00,CLR,,0.00,WeatherDisplay:10.37,2013-03-21 04:11:00,
2013-03-21 00:16:00,19.4,12.2,29.22,WSW,239,5.8,5.8,73,0.00,CLR,,0.00,WeatherDisplay:10.37,2013-03-21 04:16:00,
2013-03-21 00:21:00,19.2,12.0,29.21,WSW,248,4.9,4.9,73,0.00,CLR,,0.00,WeatherDisplay:10.37,2013-03-21 04:21:00,
2013-03-21 00:26:00,19.2,12.0,29.21,WSW,246,3.5,3.5,73,0.00,CLR,,0.00,WeatherDisplay:10.37,2013-03-21 04:26:00,
2013-03-21 00:31:00,19.0,12.1,29.21,West,267,4.3,4.3,74,0.00,CLR,,0.00,WeatherDisplay:10.37,2013-03-21 04:31:00,
2013-03-21 00:36:00,19.0,12.1,29.21,West,275,3.5,3.5,74,0.00,CLR,,0.00,WeatherDisplay:10.37,2013-03-21 04:36:00,
2013-03-21 00:42:00,18.8,11.9,29.20,NW,319,3.5,3.5,74,0.00,CLR,,0.00,WeatherDisplay:10.37,2013-03-21 04:42:00,
2013-03-21 00:47:00,18.8,11.9,29.20,West,265,6.0,6.0,74,0.00,CLR,,0.00,WeatherDisplay:10.37,2013-03-21 04:47:00,
2013-03-21 00:52:00,18.8,11.9,29.20,WSW,257,3.5,3.5,74,0.00,CLR,,0.00,WeatherDisplay:10.37,2013-03-21 04:52:00,
2013-03-21 00:57:00,18.8,11.9,29.20,WSW,256,4.6,4.6,74,0.00,CLR,,0.00,WeatherDisplay:10.37,2013-03-21 04:57:00,
2013-03-21 01:02:00,18.7,11.8,29.20,West,264,6.9,6.9,74,0.00,CLR,,0.00,WeatherDisplay:10.37,2013-03-21 05:02:00,
2013-03-21 01:07:00,18.7,12.1,29.20,WSW,251,4.6,4.6,75,0.00,CLR,,0.00,WeatherDisplay:10.37,2013-03-21 05:07:00,
2013-03-21 01:12:00,18.8,12.2,29.20,West,277,6.9,6.9,75,0.00,CLR,,0.00,WeatherDisplay:10.37,2013-03-21 05:12:00,
2013-03-21 01:17:00,18.8,12.5,29.20,WNW,289,7.7,7.7,76,0.00,CLR,,0.00,WeatherDisplay:10.37,2013-03-21 05:17:00,
2013-03-21 01:22:00,18.7,12.1,29.20,WSW,251,4.7,4.7,75,0.00,CLR,,0.00,WeatherDisplay:10.37,2013-03-21 05:22:00,
2013-03-21 01:27:00,18.7,12.1,29.19,West,278,4.6,4.6,75,0.00,CLR,,0.00,WeatherDisplay:10.37,2013-03-21 05:27:00,
2013-03-21 01:32:00,18.5,12.2,29.20,WNW,282,4.6,4.6,76,0.00,CLR,,0.00,WeatherDisplay:10.37,2013-03-21 05:32:00,
2013-03-21 01:37:00,18.5,11.9,29.20,WNW,291,5.8,5.8,75,0.00,CLR,,0.00,WeatherDisplay:10.37,2013-03-21 05:37:00,
2013-03-21 01:42:00,18.3,11.7,29.20,West,261,5.8,5.8,75,0.00,CLR,,0.00,WeatherDisplay:10.37,2013-03-21 05:42:00,
2013-03-21 01:47:00,18.1,11.2,29.19,West,265,4.6,4.6,74,0.00,CLR,,0.00,WeatherDisplay:10.37,2013-03-21 05:47:00,
2013-03-21 01:52:00,18.1,11.5,29.20,West,264,7.1,7.1,75,0.00,CLR,,0.00,WeatherDisplay:10.37,2013-03-21 05:52:00,
2013-03-21 01:57:00,18.1,11.8,29.19,West,264,4.6,4.6,76,0.00,CLR,,0.00,WeatherDisplay:10.37,2013-03-21 05:57:00,
2013-03-21 02:02:00,17.9,11.6,29.19,West,261,8.1,8.1,76,0.00,CLR,,0.00,WeatherDisplay:10.37,2013-03-21 06:02:00,
2013-03-21 02:07:00,17.9,11.6,29.19,West,278,5.8,5.8,76,0.00,CLR,,0.00,WeatherDisplay:10.37,2013-03-21 06:07:00,
2013-03-21 02:12:00,17.8,11.5,29.19,West,265,4.6,4.6,76,0.00,CLR,,0.00,WeatherDisplay:10.37,2013-03-21 06:12:00,
2013-03-21 02:17:00,17.9,11.6,29.20,WSW,256,4.6,4.6,76,0.00,CLR,,0.00,WeatherDisplay:10.37,2013-03-21 06:17:00,
2013-03-21 02:22:00,17.8,11.5,29.19,West,268,3.5,3.5,76,0.00,CLR,,0.00,WeatherDisplay:10.37,2013-03-21 06:22:00,
2013-03-21 02:27:00,17.8,11.5,29.19,West,268,4.6,4.6,76,0.00,CLR,,0.00,WeatherDisplay:10.37,2013-03-21 06:27:00,
2013-03-21 02:32:00,17.8,11.5,29.19,SW,232,2.3,2.3,76,0.00,CLR,,0.00,WeatherDisplay:10.37,2013-03-21 06:32:00,
2013-03-21 02:37:00,17.6,11.3,29.19,West,268,4.2,4.2,76,0.00,CLR,,0.00,WeatherDisplay:10.37,2013-03-21 06:37:00,
2013-03-21 02:42:00,17.4,11.1,29.19,SSW,208,3.5,3.5,76,0.00,CLR,,0.00,WeatherDisplay:10.37,2013-03-21 06:42:00,
2013-03-21 02:47:00,17.4,11.1,29.19,West,268,3.5,3.5,76,0.00,CLR,,0.00,WeatherDisplay:10.37,2013-03-21 06:47:00,
2013-03-21 02:52:00,17.2,10.9,29.19,WSW,248,5.0,5.0,76,0.00,CLR,,0.00,WeatherDisplay:10.37,2013-03-21 06:52:00,
2013-03-21 02:57:00,17.2,10.6,29.18,West,274,3.5,3.5,75,0.00,CLR,,0.00,WeatherDisplay:10.37,2013-03-21 06:57:00,
2013-03-21 03:02:00,17.0,10.7,29.18,WSW,253,3.5,3.5,76,0.00,CLR,,0.00,WeatherDisplay:10.37,2013-03-21 07:02:00,
2013-03-21 03:07:00,17.0,10.7,29.19,WSW,251,2.3,2.3,76,0.00,CLR,,0.00,WeatherDisplay:10.37,2013-03-21 07:07:00,
2013-03-21 03:12:00,16.9,10.6,29.18,West,261,3.5,3.5,76,0.00,CLR,,0.00,WeatherDisplay:10.37,2013-03-21 07:12:00,
2013-03-21 03:17:00,16.9,10.6,29.18,West,260,3.5,3.5,76,0.00,CLR,,0.00,WeatherDisplay:10.37,2013-03-21 07:17:00,
2013-03-21 03:22:00,17.0,11.0,29.18,West,260,4.3,4.3,77,0.00,CLR,,0.00,WeatherDisplay:10.37,2013-03-21 07:22:00,
2013-03-21 03:27:00,17.0,11.0,29.18,WSW,239,3.5,3.5,77,0.00,CLR,,0.00,WeatherDisplay:10.37,2013-03-21 07:27:00,
2013-03-21 03:32:00,17.2,11.2,29.18,WNW,289,4.6,4.6,77,0.00,CLR,,0.00,WeatherDisplay:10.37,2013-03-21 07:32:00,
2013-03-21 03:37:00,17.0,11.0,29.17,WSW,246,3.5,3.5,77,0.00,CLR,,0.00,WeatherDisplay:10.37,2013-03-21 07:37:00,
2013-03-21 03:42:00,17.0,11.0,29.17,WNW,301,5.8,5.8,77,0.00,CLR,,0.00,WeatherDisplay:10.37,2013-03-21 07:42:00,
2013-03-21 03:47:00,17.0,11.0,29.16,WSW,253,4.6,4.6,77,0.00,CLR,,0.00,WeatherDisplay:10.37,2013-03-21 07:47:00,
2013-03-21 03:52:00,17.2,11.2,29.17,West,268,4.6,4.6,77,0.00,CLR,,0.00,WeatherDisplay:10.37,2013-03-21 07:52:00,
2013-03-21 03:57:00,17.0,11.3,29.17,West,265,4.6,4.6,78,0.00,CLR,,0.00,WeatherDisplay:10.37,2013-03-21 07:57:00,
2013-03-21 04:02:00,17.0,11.0,29.17,West,264,5.8,5.8,77,0.00,CLR,,0.00,WeatherDisplay:10.37,2013-03-21 08:02:00,
2013-03-21 04:07:00,17.0,11.0,29.17,WNW,295,4.6,4.6,77,0.00,CLR,,0.00,WeatherDisplay:10.37,2013-03-21 08:07:00,
2013-03-21 04:12:00,16.9,10.9,29.16,West,260,5.8,5.8,77,0.00,CLR,,0.00,WeatherDisplay:10.37,2013-03-21 08:12:00,
2013-03-21 04:17:00,16.9,10.6,29.16,WSW,256,3.5,3.5,76,0.00,CLR,,0.00,WeatherDisplay:10.37,2013-03-21 08:17:00,
2013-03-21 04:22:00,16.9,10.6,29.16,West,271,3.9,3.9,76,0.00,CLR,,0.00,WeatherDisplay:10.37,2013-03-21 08:22:00,
2013-03-21 04:27:00,16.9,11.2,29.16,West,272,3.5,3.5,78,0.00,CLR,,0.00,WeatherDisplay:10.37,2013-03-21 08:27:00,
2013-03-21 04:32:00,16.7,11.0,29.15,WNW,284,4.6,4.6,78,0.00,CLR,,0.00,WeatherDisplay:10.37,2013-03-21 08:32:00,
2013-03-21 04:37:00,16.7,11.0,29.16,West,268,5.0,5.0,78,0.00,CLR,,0.00,WeatherDisplay:10.37,2013-03-21 08:37:00,
2013-03-21 04:42:00,16.7,11.0,29.15,WSW,251,4.5,4.5,78,0.00,CLR,,0.00,WeatherDisplay:10.37,2013-03-21 08:42:00,
2013-03-21 04:47:00,16.7,11.0,29.16,WSW,257,4.6,4.6,78,0.00,CLR,,0.00,WeatherDisplay:10.37,2013-03-21 08:47:00,
2013-03-21 04:52:00,16.7,11.0,29.15,West,268,5.8,5.8,78,0.00,CLR,,0.00,WeatherDisplay:10.37,2013-03-21 08:52:00,
2013-03-21 04:57:00,16.7,11.0,29.15,West,261,3.5,3.5,78,0.00,CLR,,0.00,WeatherDisplay:10.37,2013-03-21 08:57:00,
2013-03-21 05:02:00,16.7,11.0,29.15,West,264,4.6,4.6,78,0.00,CLR,,0.00,WeatherDisplay:10.37,2013-03-21 09:02:00,
2013-03-21 05:07:00,16.7,11.0,29.16,West,271,6.9,6.9,78,0.00,CLR,,0.00,WeatherDisplay:10.37,2013-03-21 09:07:00,
2013-03-21 05:12:00,16.7,11.0,29.15,West,275,4.6,4.6,78,0.00,CLR,,0.00,WeatherDisplay:10.37,2013-03-21 09:12:00,
2013-03-21 05:17:00,16.7,11.0,29.15,SW,219,3.5,3.5,78,0.00,CLR,,0.00,WeatherDisplay:10.37,2013-03-21 09:17:00,
2013-03-21 05:22:00,16.7,11.3,29.15,West,274,4.6,4.6,79,0.00,CLR,,0.00,WeatherDisplay:10.37,2013-03-21 09:22:00,
2013-03-21 05:27:00,16.7,11.0,29.15,West,264,5.8,5.8,78,0.00,CLR,,0.00,WeatherDisplay:10.37,2013-03-21 09:27:00,
2013-03-21 05:32:00,16.7,11.0,29.14,WSW,248,4.6,4.6,78,0.00,CLR,,0.00,WeatherDisplay:10.37,2013-03-21 09:32:00,
2013-03-21 05:37:00,16.7,11.0,29.14,West,263,4.6,4.6,78,0.00,CLR,,0.00,WeatherDisplay:10.37,2013-03-21 09:37:00,
2013-03-21 05:42:00,16.9,11.2,29.15,WSW,240,5.8,5.8,78,0.00,CLR,,0.00,WeatherDisplay:10.37,2013-03-21 09:42:00,
2013-03-21 05:47:00,16.7,11.0,29.14,WSW,257,3.5,3.5,78,0.00,CLR,,0.00,WeatherDisplay:10.37,2013-03-21 09:47:00,
2013-03-21 05:52:00,16.7,11.0,29.15,West,278,3.9,3.9,78,0.00,CLR,,0.00,WeatherDisplay:10.37,2013-03-21 09:52:00,
2013-03-21 05:57:00,16.7,11.0,29.15,West,264,3.5,3.5,78,0.00,CLR,,0.00,WeatherDisplay:10.37,2013-03-21 09:57:00,
2013-03-21 06:02:00,16.7,11.3,29.15,WSW,237,3.5,3.5,79,0.00,CLR,,0.00,WeatherDisplay:10.37,2013-03-21 10:02:00,
2013-03-21 06:07:00,16.7,11.0,29.15,SW,229,4.6,4.6,78,0.00,CLR,,0.00,WeatherDisplay:10.37,2013-03-21 10:07:00,
2013-03-21 06:12:00,16.7,11.3,29.15,SW,236,2.3,2.3,79,0.00,CLR,,0.00,WeatherDisplay:10.37,2013-03-21 10:12:00,
2013-03-21 06:17:00,16.7,11.3,29.15,SW,234,2.3,2.3,79,0.00,CLR,,0.00,WeatherDisplay:10.37,2013-03-21 10:17:00,
2013-03-21 06:22:00,16.7,11.0,29.15,WSW,248,1.2,1.2,78,0.00,CLR,,0.00,WeatherDisplay:10.37,2013-03-21 10:22:00,
2013-03-21 06:27:00,16.7,11.0,29.16,SW,226,2.3,2.3,78,0.00,CLR,,0.00,WeatherDisplay:10.37,2013-03-21 10:27:00,
2013-03-21 06:32:00,16.7,11.3,29.16,West,265,3.5,3.5,79,0.00,CLR,,0.00,WeatherDisplay:10.37,2013-03-21 10:32:00,
2013-03-21 06:37:00,16.7,11.6,29.16,West,275,4.6,4.6,80,0.00,CLR,,0.00,WeatherDisplay:10.37,2013-03-21 10:37:00,
2013-03-21 06:42:00,16.7,11.3,29.16,WNW,296,3.5,3.5,79,0.00,CLR,,0.00,WeatherDisplay:10.37,2013-03-21 10:42:00,
2013-03-21 06:47:00,16.5,11.4,29.16,WSW,256,3.5,3.5,80,0.00,CLR,,0.00,WeatherDisplay:10.37,2013-03-21 10:47:00,
2013-03-21 06:52:00,16.5,11.1,29.16,SW,220,2.3,2.3,79,0.00,CLR,,0.00,WeatherDisplay:10.37,2013-03-21 10:52:00,
2013-03-21 06:57:00,16.3,10.9,29.16,West,264,2.3,2.3,79,0.00,CLR,,0.00,WeatherDisplay:10.37,2013-03-21 10:57:00,
2013-03-21 07:02:00,16.3,10.9,29.15,SSW,198,3.5,3.5,79,0.00,CLR,,0.00,WeatherDisplay:10.37,2013-03-21 11:02:00,
2013-03-21 07:07:00,16.5,11.4,29.16,West,265,4.6,4.6,80,0.00,CLR,,0.00,WeatherDisplay:10.37,2013-03-21 11:07:00,
2013-03-21 07:12:00,16.5,11.4,29.16,WSW,257,3.5,3.5,80,0.00,CLR,,0.00,WeatherDisplay:10.37,2013-03-21 11:12:00,
2013-03-21 07:17:00,16.5,11.1,29.15,WSW,251,4.7,4.7,79,0.00,CLR,,0.00,WeatherDisplay:10.37,2013-03-21 11:17:00,
2013-03-21 07:22:00,16.7,11.6,29.14,WSW,251,3.5,3.5,80,0.00,CLR,,0.00,WeatherDisplay:10.37,2013-03-21 11:22:00,
2013-03-21 07:27:00,16.7,11.6,29.15,WSW,251,4.3,4.3,80,0.00,CLR,,0.00,WeatherDisplay:10.37,2013-03-21 11:27:00,
2013-03-21 07:32:00,16.9,11.8,29.15,WSW,256,3.5,3.5,80,0.00,CLR,,0.00,WeatherDisplay:10.37,2013-03-21 11:32:00,
2013-03-21 07:37:00,16.9,11.8,29.15,WNW,291,3.5,3.5,80,0.00,CLR,,0.00,WeatherDisplay:10.37,2013-03-21 11:37:00,
2013-03-21 07:42:00,17.0,11.6,29.14,West,275,6.0,6.0,79,0.00,CLR,,0.00,WeatherDisplay:10.37,2013-03-21 11:42:00,
2013-03-21 07:47:00,17.2,12.1,29.15,SW,234,4.2,4.2,80,0.00,CLR,,0.00,WeatherDisplay:10.37,2013-03-21 11:47:00,
2013-03-21 07:52:00,17.4,12.3,29.15,SW,232,4.6,4.6,80,0.00,CLR,,0.00,WeatherDisplay:10.37,2013-03-21 11:52:00,
2013-03-21 07:57:00,17.8,12.7,29.15,WSW,256,5.8,5.8,80,0.00,CLR,,0.00,WeatherDisplay:10.37,2013-03-21 11:57:00,
2013-03-21 08:02:00,18.1,13.0,29.15,SW,224,6.9,6.9,80,0.00,CLR,,0.00,WeatherDisplay:10.37,2013-03-21 12:02:00,
2013-03-21 08:07:00,18.3,13.2,29.14,WSW,248,9.2,9.2,80,0.00,CLR,,0.00,WeatherDisplay:10.37,2013-03-21 12:07:00,
2013-03-21 08:13:00,18.7,13.3,29.15,WSW,237,6.9,6.9,79,0.00,CLR,,0.00,WeatherDisplay:10.37,2013-03-21 12:13:00,
2013-03-21 08:18:00,19.0,13.6,29.15,SW,224,3.5,3.5,79,0.00,CLR,,0.00,WeatherDisplay:10.37,2013-03-21 12:18:00,
2013-03-21 08:23:00,19.2,13.8,29.15,WSW,248,3.5,3.5,79,0.00,CLR,,0.00,WeatherDisplay:10.37,2013-03-21 12:23:00,
2013-03-21 08:28:00,19.6,14.1,29.14,SW,220,9.2,9.2,79,0.00,CLR,,0.00,WeatherDisplay:10.37,2013-03-21 12:28:00,
2013-03-21 08:33:00,19.9,14.4,29.14,WSW,257,6.1,6.1,79,0.00,CLR,,0.00,WeatherDisplay:10.37,2013-03-21 12:33:00,
2013-03-21 08:38:00,20.1,14.3,29.14,West,265,6.0,6.0,78,0.00,CLR,,0.00,WeatherDisplay:10.37,2013-03-21 12:38:00,
2013-03-21 08:43:00,20.5,14.7,29.14,West,271,6.9,6.9,78,0.00,CLR,,0.00,WeatherDisplay:10.37,2013-03-21 12:43:00,
2013-03-21 08:48:00,20.6,14.8,29.14,WNW,287,4.3,4.3,78,0.00,CLR,,0.00,WeatherDisplay:10.37,2013-03-21 12:48:00,
2013-03-21 08:53:00,21.2,15.4,29.15,WSW,251,5.8,5.8,78,0.00,CLR,,0.00,WeatherDisplay:10.37,2013-03-21 12:53:00,
2013-03-21 08:58:00,21.3,15.2,29.14,WSW,254,5.7,5.7,77,0.00,CLR,,0.00,WeatherDisplay:10.37,2013-03-21 12:58:00,
2013-03-21 09:03:00,21.7,15.3,29.14,SW,234,5.8,5.8,76,0.00,CLR,,0.00,WeatherDisplay:10.37,2013-03-21 13:03:00,
2013-03-21 09:08:00,22.1,15.4,29.15,SW,230,8.1,8.1,75,0.00,CLR,,0.00,WeatherDisplay:10.37,2013-03-21 13:08:00,
2013-03-21 09:13:00,22.2,15.8,29.14,SW,232,5.8,5.8,76,0.00,CLR,,0.00,WeatherDisplay:10.37,2013-03-21 13:13:00,
2013-03-21 09:18:00,22.6,15.6,29.15,WSW,253,5.8,5.8,74,0.00,CLR,,0.00,WeatherDisplay:10.37,2013-03-21 13:18:00,
2013-03-21 09:23:00,23.0,16.3,29.15,WSW,256,5.8,5.8,75,0.00,CLR,,0.00,WeatherDisplay:10.37,2013-03-21 13:23:00,
2013-03-21 09:28:00,23.3,16.2,29.15,WSW,257,5.8,5.8,74,0.00,CLR,,0.00,WeatherDisplay:10.37,2013-03-21 13:28:00,
2013-03-21 09:33:00,23.7,16.3,29.15,West,278,11.5,11.5,73,0.00,CLR,,0.00,WeatherDisplay:10.37,2013-03-21 13:33:00,
2013-03-21 09:38:00,24.2,17.1,29.15,WSW,239,8.1,8.1,74,0.00,CLR,,0.00,WeatherDisplay:10.37,2013-03-21 13:38:00,
2013-03-21 09:43:00,24.6,16.9,29.14,West,265,8.1,8.1,72,0.00,CLR,,0.00,WeatherDisplay:10.37,2013-03-21 13:43:00,
2013-03-21 09:48:00,24.8,17.1,29.14,WSW,241,11.7,11.7,72,0.00,CLR,,0.00,WeatherDisplay:10.37,2013-03-21 13:48:00,
2013-03-21 09:53:00,24.4,16.3,29.14,West,261,6.9,6.9,71,0.00,CLR,,0.00,WeatherDisplay:10.37,2013-03-21 13:53:00,
2013-03-21 09:58:00,24.4,16.7,29.14,West,271,9.2,9.2,72,0.00,CLR,,0.00,WeatherDisplay:10.37,2013-03-21 13:58:00,
2013-03-21 10:03:00,24.8,17.1,29.15,WSW,239,9.2,9.2,72,0.00,CLR,,0.00,WeatherDisplay:10.37,2013-03-21 14:03:00,
2013-03-21 10:08:00,25.3,17.2,29.14,SW,226,10.4,10.4,71,0.00,CLR,,0.00,WeatherDisplay:10.37,2013-03-21 14:08:00,
2013-03-21 10:13:00,25.8,17.4,29.14,WSW,241,11.5,11.5,70,0.00,CLR,,0.00,WeatherDisplay:10.37,2013-03-21 14:13:00,
2013-03-21 10:18:00,26.4,17.9,29.14,West,261,9.4,9.4,70,0.00,CLR,,0.00,WeatherDisplay:10.37,2013-03-21 14:18:00,
2013-03-21 10:23:00,26.7,18.2,29.15,WSW,251,5.8,5.8,70,0.00,CLR,,0.00,WeatherDisplay:10.37,2013-03-21 14:23:00,
2013-03-21 10:28:00,27.1,18.6,29.15,NW,326,8.1,8.1,70,0.00,CLR,,0.00,WeatherDisplay:10.37,2013-03-21 14:28:00,
2013-03-21 10:33:00,27.3,18.8,29.15,West,278,3.7,3.7,70,0.01,RA,,0.01,WeatherDisplay:10.37,2013-03-21 14:33:00,
2013-03-21 10:39:00,27.6,18.8,29.15,West,261,11.5,11.5,69,0.01,RA,,0.01,WeatherDisplay:10.37,2013-03-21 14:39:00,
2013-03-21 10:44:00,27.6,18.8,29.15,WSW,237,6.9,6.9,69,0.01,,,0.01,WeatherDisplay:10.37,2013-03-21 14:44:00,
2013-03-21 10:49:00,27.6,18.4,29.15,SW,234,10.4,10.4,68,0.01,CLR,,0.01,WeatherDisplay:10.37,2013-03-21 14:49:00,
2013-03-21 10:54:00,27.5,18.3,29.15,SW,236,9.2,9.2,68,0.01,CLR,,0.01,WeatherDisplay:10.37,2013-03-21 14:54:00,
2013-03-21 10:59:00,27.6,18.8,29.14,West,261,9.2,9.2,69,0.01,CLR,,0.01,WeatherDisplay:10.37,2013-03-21 14:59:00,
2013-03-21 11:04:00,27.6,18.4,29.15,West,264,6.9,6.9,68,0.01,CLR,,0.01,WeatherDisplay:10.37,2013-03-21 15:04:00,
2013-03-21 11:09:00,27.6,18.4,29.14,WSW,256,11.6,11.6,68,0.01,CLR,,0.01,WeatherDisplay:10.37,2013-03-21 15:09:00,
2013-03-21 11:14:00,27.6,18.4,29.14,West,260,8.5,8.5,68,0.01,CLR,,0.01,WeatherDisplay:10.37,2013-03-21 15:14:00,
2013-03-21 11:19:00,27.8,18.6,29.15,West,261,6.9,6.9,68,0.01,CLR,,0.01,WeatherDisplay:10.37,2013-03-21 15:19:00,
2013-03-21 11:24:00,28.0,19.1,29.14,SSW,200,8.1,8.1,69,0.01,CLR,,0.01,WeatherDisplay:10.37,2013-03-21 15:24:00,
2013-03-21 11:29:00,28.2,19.0,29.15,West,268,4.5,4.5,68,0.01,CLR,,0.01,WeatherDisplay:10.37,2013-03-21 15:29:00,
2013-03-21 11:34:00,28.5,19.3,29.15,West,278,4.6,4.6,68,0.00,CLR,,0.01,WeatherDisplay:10.37,2013-03-21 15:34:00,
2013-03-21 11:39:00,28.9,19.7,29.14,West,274,8.1,8.1,68,0.00,CLR,,0.01,WeatherDisplay:10.37,2013-03-21 15:39:00,
2013-03-21 11:44:00,29.3,20.4,29.14,WSW,251,10.4,10.4,69,0.00,CLR,,0.01,WeatherDisplay:10.37,2013-03-21 15:44:00,
2013-03-21 11:49:00,29.6,20.3,29.14,SW,216,10.4,10.4,68,0.00,CLR,,0.01,WeatherDisplay:10.37,2013-03-21 15:49:00,
2013-03-21 11:54:00,29.4,20.5,29.13,WNW,282,8.1,8.1,69,0.00,CLR,,0.01,WeatherDisplay:10.37,2013-03-21 15:54:00,
2013-03-21 11:59:00,29.1,20.2,29.14,WSW,248,4.6,4.6,69,0.00,CLR,,0.01,WeatherDisplay:10.37,2013-03-21 15:59:00,
2013-03-21 12:04:00,28.7,20.5,29.14,WSW,246,7.1,7.1,71,0.00,CLR,,0.01,WeatherDisplay:10.37,2013-03-21 16:04:00,
2013-03-21 12:09:00,28.4,20.5,29.14,WSW,246,4.6,4.6,72,0.00,CLR,,0.01,WeatherDisplay:10.37,2013-03-21 16:09:00,
2013-03-21 12:14:00,28.4,20.8,29.14,WSW,253,6.9,6.9,73,0.00,CLR,,0.01,WeatherDisplay:10.37,2013-03-21 16:14:00,
2013-03-21 12:19:00,28.4,20.8,29.14,WSW,258,4.6,4.6,73,0.00,CLR,,0.01,WeatherDisplay:10.37,2013-03-21 16:19:00,
2013-03-21 12:24:00,28.4,21.2,29.14,SW,229,6.9,6.9,74,0.00,CLR,,0.01,WeatherDisplay:10.37,2013-03-21 16:24:00,
2013-03-21 12:29:00,28.4,21.2,29.14,WSW,258,10.4,10.4,74,0.00,CLR,,0.01,WeatherDisplay:10.37,2013-03-21 16:29:00,
2013-03-21 12:34:00,28.2,21.0,29.14,WSW,246,5.8,5.8,74,0.00,CLR,,0.01,WeatherDisplay:10.37,2013-03-21 16:34:00,
2013-03-21 12:39:00,28.0,20.8,29.14,West,260,4.6,4.6,74,0.00,CLR,,0.01,WeatherDisplay:10.37,2013-03-21 16:39:00,
2013-03-21 12:44:00,28.2,21.0,29.14,SW,226,5.8,5.8,74,0.00,CLR,,0.01,WeatherDisplay:10.37,2013-03-21 16:44:00,
2013-03-21 12:49:00,28.2,21.0,29.14,SW,226,5.8,5.8,74,0.00,CLR,,0.01,WeatherDisplay:10.37,2013-03-21 16:49:00,
2013-03-21 12:54:00,28.0,20.8,29.14,West,271,12.7,12.7,74,0.00,CLR,,0.01,WeatherDisplay:10.37,2013-03-21 16:54:00,
2013-03-21 12:59:00,28.2,21.0,29.14,SW,234,4.6,4.6,74,0.00,CLR,,0.01,WeatherDisplay:10.37,2013-03-21 16:59:00,
2013-03-21 13:04:00,28.2,21.0,29.13,WSW,241,8.1,8.1,74,0.00,CLR,,0.01,WeatherDisplay:10.37,2013-03-21 17:04:00,
2013-03-21 13:09:00,28.7,21.5,29.13,West,268,10.6,10.6,74,0.00,CLR,,0.01,WeatherDisplay:10.37,2013-03-21 17:09:00,
2013-03-21 13:14:00,29.3,22.0,29.13,SSW,212,6.9,6.9,74,0.00,CLR,,0.01,WeatherDisplay:10.37,2013-03-21 17:14:00,
2013-03-21 13:19:00,29.8,22.8,29.13,SW,219,4.6,4.6,75,0.00,CLR,,0.01,WeatherDisplay:10.37,2013-03-21 17:19:00,
2013-03-21 13:24:00,30.0,22.7,29.12,SW,233,9.2,9.2,74,0.00,CLR,,0.01,WeatherDisplay:10.37,2013-03-21 17:24:00,
2013-03-21 13:29:00,30.2,22.9,29.13,SW,220,7.0,7.0,74,0.00,CLR,,0.01,WeatherDisplay:10.37,2013-03-21 17:29:00,
2013-03-21 13:34:00,30.5,23.2,29.14,WNW,288,8.1,8.1,74,0.00,CLR,,0.01,WeatherDisplay:10.37,2013-03-21 17:34:00,
2013-03-21 13:39:00,30.5,23.2,29.12,WSW,244,4.6,4.6,74,0.00,CLR,,0.01,WeatherDisplay:10.37,2013-03-21 17:39:00,
2013-03-21 13:44:00,30.9,23.6,29.13,WSW,240,8.1,8.1,74,0.00,CLR,,0.01,WeatherDisplay:10.37,2013-03-21 17:44:00,
2013-03-21 13:49:00,31.1,23.8,29.12,WSW,251,4.6,4.6,74,0.00,CLR,,0.01,WeatherDisplay:10.37,2013-03-21 17:49:00,
2013-03-21 13:54:00,31.2,23.5,29.13,SW,226,6.9,6.9,73,0.00,CLR,,0.01,WeatherDisplay:10.37,2013-03-21 17:54:00,
2013-03-21 13:59:00,31.6,23.9,29.12,WSW,244,6.9,6.9,73,0.00,CLR,,0.01,WeatherDisplay:10.37,2013-03-21 17:59:00,
2013-03-21 14:04:00,31.4,23.7,29.13,SW,227,8.1,8.1,73,0.00,CLR,,0.01,WeatherDisplay:10.37,2013-03-21 18:04:00,
2013-03-21 14:09:00,31.4,23.7,29.12,SW,234,5.8,5.8,73,0.00,CLR,,0.01,WeatherDisplay:10.37,2013-03-21 18:09:00,
2013-03-21 14:14:00,31.6,23.9,29.13,WSW,251,3.5,3.5,73,0.00,CLR,,0.01,WeatherDisplay:10.37,2013-03-21 18:14:00,
2013-03-21 14:19:00,31.6,24.3,29.12,West,261,10.4,10.4,74,0.00,CLR,,0.01,WeatherDisplay:10.37,2013-03-21 18:19:00,
2013-03-21 14:24:00,31.8,24.1,29.12,WSW,253,10.4,10.4,73,0.00,CLR,,0.01,WeatherDisplay:10.37,2013-03-21 18:24:00,
2013-03-21 14:29:00,32.0,24.3,29.12,West,268,7.0,7.0,73,0.00,CLR,,0.01,WeatherDisplay:10.37,2013-03-21 18:29:00,
2013-03-21 14:34:00,31.8,23.8,29.12,West,263,5.8,5.8,72,0.00,CLR,,0.01,WeatherDisplay:10.37,2013-03-21 18:34:00,
2013-03-21 14:39:00,31.8,23.5,29.12,SW,222,5.8,5.8,71,0.00,CLR,,0.01,WeatherDisplay:10.37,2013-03-21 18:39:00,
2013-03-21 14:44:00,31.8,23.5,29.12,SSW,208,10.4,10.4,71,0.00,CLR,,0.01,WeatherDisplay:10.37,2013-03-21 18:44:00,
2013-03-21 14:49:00,32.0,24.0,29.12,SSW,212,5.8,5.8,72,0.00,CLR,,0.01,WeatherDisplay:10.37,2013-03-21 18:49:00,
2013-03-21 14:54:00,32.3,24.3,29.12,SW,220,6.2,6.2,72,0.00,CLR,,0.01,WeatherDisplay:10.37,2013-03-21 18:54:00,
2013-03-21 14:59:00,32.5,24.5,29.12,WSW,246,11.5,11.5,72,0.00,CLR,,0.01,WeatherDisplay:10.37,2013-03-21 18:59:00,
2013-03-21 15:04:00,32.5,24.1,29.11,South,171,8.1,8.1,71,0.00,CLR,,0.01,WeatherDisplay:10.37,2013-03-21 19:04:00,
2013-03-21 15:09:00,32.7,24.3,29.12,SW,216,5.8,5.8,71,0.00,CLR,,0.01,WeatherDisplay:10.37,2013-03-21 19:09:00,
2013-03-21 15:14:00,32.5,24.1,29.12,West,265,4.6,4.6,71,0.00,CLR,,0.01,WeatherDisplay:10.37,2013-03-21 19:14:00,
2013-03-21 15:19:00,32.5,24.5,29.12,WSW,244,6.9,6.9,72,0.00,CLR,,0.01,WeatherDisplay:10.37,2013-03-21 19:19:00,
2013-03-21 15:24:00,32.1,24.1,29.12,South,179,4.6,4.6,72,0.00,CLR,,0.01,WeatherDisplay:10.37,2013-03-21 19:24:00,
2013-03-21 15:29:00,32.1,24.1,29.12,SW,226,5.8,5.8,72,0.00,CLR,,0.01,WeatherDisplay:10.37,2013-03-21 19:29:00,
2013-03-21 15:34:00,32.1,24.4,29.12,West,260,5.0,5.0,73,0.00,CLR,,0.01,WeatherDisplay:10.37,2013-03-21 19:34:00,
2013-03-21 15:39:00,31.6,24.3,29.11,NW,306,8.1,8.1,74,0.00,CLR,,0.01,WeatherDisplay:10.37,2013-03-21 19:39:00,
2013-03-21 15:44:00,31.4,24.4,29.12,WSW,239,4.6,4.6,75,0.00,CLR,,0.01,WeatherDisplay:10.37,2013-03-21 19:44:00,
2013-03-21 15:49:00,31.2,24.5,29.12,West,264,7.0,7.0,76,0.00,CLR,,0.01,WeatherDisplay:10.37,2013-03-21 19:49:00,
2013-03-21 15:54:00,30.9,24.5,29.12,WNW,289,5.3,5.3,77,0.00,CLR,,0.01,WeatherDisplay:10.37,2013-03-21 19:54:00,
2013-03-21 15:59:00,30.5,24.5,29.12,West,260,5.8,5.8,78,0.00,CLR,,0.01,WeatherDisplay:10.37,2013-03-21 19:59:00,
2013-03-21 16:04:00,30.5,24.8,29.12,West,278,4.6,4.6,79,0.00,CLR,,0.01,WeatherDisplay:10.37,2013-03-21 20:04:00,
2013-03-21 16:09:00,30.5,24.5,29.11,WSW,257,5.2,5.2,78,0.00,CLR,,0.01,WeatherDisplay:10.37,2013-03-21 20:09:00,
2013-03-21 16:14:00,31.1,25.3,29.12,SSW,212,3.5,3.5,79,0.00,CLR,,0.01,WeatherDisplay:10.37,2013-03-21 20:14:00,
2013-03-21 16:19:00,31.2,25.4,29.11,WSW,253,3.5,3.5,79,0.00,CLR,,0.01,WeatherDisplay:10.37,2013-03-21 20:19:00,
2013-03-21 16:24:00,31.4,25.6,29.12,WSW,246,3.5,3.5,79,0.00,CLR,,0.01,WeatherDisplay:10.37,2013-03-21 20:24:00,
2013-03-21 16:29:00,31.4,25.3,29.11,WSW,254,4.6,4.6,78,0.00,CLR,,0.01,WeatherDisplay:10.37,2013-03-21 20:29:00,
2013-03-21 16:34:00,31.2,25.4,29.12,West,261,2.3,2.3,79,0.00,CLR,,0.01,WeatherDisplay:10.37,2013-03-21 20:34:00,
2013-03-21 16:39:00,31.4,25.6,29.12,WSW,241,3.5,3.5,79,0.00,CLR,,0.01,WeatherDisplay:10.37,2013-03-21 20:39:00,
2013-03-21 16:44:00,31.2,25.4,29.12,West,278,3.7,3.7,79,0.00,CLR,,0.01,WeatherDisplay:10.37,2013-03-21 20:44:00,
2013-03-21 16:49:00,31.1,25.7,29.11,SSE,164,1.3,1.3,80,0.00,CLR,,0.01,WeatherDisplay:10.37,2013-03-21 20:49:00,
2013-03-21 16:54:00,31.6,26.1,29.12,West,278,4.6,4.6,80,0.00,CLR,,0.01,WeatherDisplay:10.37,2013-03-21 20:54:00,
2013-03-21 16:59:00,31.6,25.8,29.12,WNW,282,2.8,2.8,79,0.00,CLR,,0.01,WeatherDisplay:10.37,2013-03-21 20:59:00,
2013-03-21 17:04:00,32.1,26.3,29.12,WNW,282,3.5,3.5,79,0.00,CLR,,0.01,WeatherDisplay:10.37,2013-03-21 21:04:00,
2013-03-21 17:09:00,32.0,25.6,29.11,West,264,5.8,5.8,77,0.00,CLR,,0.01,WeatherDisplay:10.37,2013-03-21 21:09:00,
2013-03-21 17:14:00,31.6,24.9,29.12,NNW,346,3.5,3.5,76,0.00,CLR,,0.01,WeatherDisplay:10.37,2013-03-21 21:14:00,
2013-03-21 17:19:00,31.2,23.5,29.12,NNW,347,6.0,6.0,73,0.00,CLR,,0.01,WeatherDisplay:10.37,2013-03-21 21:19:00,
2013-03-21 17:24:00,30.9,22.3,29.12,NNW,340,4.9,4.9,70,0.00,CLR,,0.01,WeatherDisplay:10.37,2013-03-21 21:24:00,
2013-03-21 17:29:00,30.3,21.3,29.12,NNW,340,5.8,5.8,69,0.00,CLR,,0.01,WeatherDisplay:10.37,2013-03-21 21:29:00,
2013-03-21 17:34:00,30.3,21.7,29.12,North,356,4.6,4.6,70,0.00,CLR,,0.01,WeatherDisplay:10.37,2013-03-21 21:34:00,
2013-03-21 17:39:00,30.7,22.7,29.12,NNW,343,6.9,6.9,72,0.00,CLR,,0.01,WeatherDisplay:10.37,2013-03-21 21:39:00,
2013-03-21 17:44:00,30.7,22.1,29.12,North,350,5.8,5.8,70,0.00,CLR,,0.01,WeatherDisplay:10.37,2013-03-21 21:44:00,
2013-03-21 17:49:00,30.5,21.9,29.12,NW,325,5.8,5.8,70,0.00,CLR,,0.01,WeatherDisplay:10.37,2013-03-21 21:49:00,
2013-03-21 17:54:00,30.5,21.9,29.13,NNW,344,8.1,8.1,70,0.00,CLR,,0.01,WeatherDisplay:10.37,2013-03-21 21:54:00,
2013-03-21 17:59:00,30.0,20.7,29.12,NNW,336,8.1,8.1,68,0.00,CLR,,0.01,WeatherDisplay:10.37,2013-03-21 21:59:00,
2013-03-21 18:04:00,30.0,20.7,29.13,NNW,347,6.9,6.9,68,0.00,CLR,,0.01,WeatherDisplay:10.37,2013-03-21 22:04:00,
2013-03-21 18:09:00,29.6,20.3,29.12,North,4,6.9,6.9,68,0.00,CLR,,0.01,WeatherDisplay:10.37,2013-03-21 22:09:00,
2013-03-21 18:14:00,29.4,20.1,29.13,NNW,347,6.9,6.9,68,0.00,CLR,,0.01,WeatherDisplay:10.37,2013-03-21 22:14:00,
2013-03-21 18:19:00,28.9,19.7,29.13,North,352,7.9,7.9,68,0.00,CLR,,0.01,WeatherDisplay:10.37,2013-03-21 22:19:00,
2013-03-21 18:24:00,28.9,19.7,29.13,North,350,4.6,4.6,68,0.00,CLR,,0.01,WeatherDisplay:10.37,2013-03-21 22:24:00,
2013-03-21 18:29:00,28.7,19.8,29.13,NNW,343,6.9,6.9,69,0.00,CLR,,0.01,WeatherDisplay:10.37,2013-03-21 22:29:00,
2013-03-21 18:34:00,28.5,19.3,29.13,WNW,301,7.6,7.6,68,0.00,CLR,,0.01,WeatherDisplay:10.37,2013-03-21 22:34:00,
2013-03-21 18:39:00,28.2,19.0,29.13,North,0,7.9,7.9,68,0.00,CLR,,0.01,WeatherDisplay:10.37,2013-03-21 22:39:00,
2013-03-21 18:44:00,27.8,18.6,29.13,WNW,292,9.2,9.2,68,0.00,CLR,,0.01,WeatherDisplay:10.37,2013-03-21 22:44:00,
2013-03-21 18:49:00,27.6,18.8,29.14,North,354,5.8,5.8,69,0.00,CLR,,0.01,WeatherDisplay:10.37,2013-03-21 22:49:00,
2013-03-21 18:54:00,27.6,18.8,29.14,NNW,344,5.8,5.8,69,0.00,CLR,,0.01,WeatherDisplay:10.37,2013-03-21 22:54:00,
2013-03-21 18:59:00,27.5,18.7,29.15,NNW,333,5.8,5.8,69,0.00,CLR,,0.01,WeatherDisplay:10.37,2013-03-21 22:59:00,
2013-03-21 19:04:00,27.3,18.5,29.14,NW,316,6.9,6.9,69,0.00,CLR,,0.01,WeatherDisplay:10.37,2013-03-21 23:04:00,
2013-03-21 19:09:00,27.1,18.3,29.14,NNW,340,5.8,5.8,69,0.00,CLR,,0.01,WeatherDisplay:10.37,2013-03-21 23:09:00,
2013-03-21 19:14:00,26.9,18.1,29.14,NW,311,5.8,5.8,69,0.00,CLR,,0.01,WeatherDisplay:10.37,2013-03-21 23:14:00,
2013-03-21 19:19:00,26.9,18.1,29.14,NNW,347,5.8,5.8,69,0.00,CLR,,0.01,WeatherDisplay:10.37,2013-03-21 23:19:00,
2013-03-21 19:24:00,26.7,18.2,29.14,NNW,337,4.6,4.6,70,0.00,CLR,,0.01,WeatherDisplay:10.37,2013-03-21 23:24:00,
2013-03-21 19:29:00,26.6,18.1,29.14,NNW,328,3.5,3.5,70,0.00,CLR,,0.01,WeatherDisplay:10.37,2013-03-21 23:29:00,
2013-03-21 19:34:00,26.2,18.1,29.14,WNW,302,6.9,6.9,71,0.00,CLR,,0.01,WeatherDisplay:10.37,2013-03-21 23:34:00,
2013-03-21 19:39:00,26.2,17.7,29.15,North,352,4.6,4.6,70,0.00,CLR,,0.01,WeatherDisplay:10.37,2013-03-21 23:39:00,
2013-03-21 19:44:00,26.2,17.7,29.15,NW,318,3.5,3.5,70,0.00,CLR,,0.01,WeatherDisplay:10.37,2013-03-21 23:44:00,
2013-03-21 19:49:00,26.0,17.9,29.14,NW,306,4.2,4.2,71,0.00,CLR,,0.01,WeatherDisplay:10.37,2013-03-21 23:49:00,
2013-03-21 19:54:00,26.0,18.2,29.14,WNW,296,3.5,3.5,72,0.00,CLR,,0.01,WeatherDisplay:10.37,2013-03-21 23:54:00,
2013-03-21 19:59:00,25.8,18.0,29.14,WNW,291,3.5,3.5,72,0.00,CLR,,0.01,WeatherDisplay:10.37,2013-03-21 23:59:00,
2013-03-21 20:04:00,26.0,18.2,29.15,West,278,4.5,4.5,72,0.00,CLR,,0.01,WeatherDisplay:10.37,2013-03-22 00:04:00,
2013-03-21 20:09:00,26.0,18.2,29.14,West,272,5.8,5.8,72,0.00,CLR,,0.01,WeatherDisplay:10.37,2013-03-22 00:09:00,
2013-03-21 20:14:00,26.2,18.1,29.15,WNW,289,5.8,5.8,71,0.00,CLR,,0.01,WeatherDisplay:10.37,2013-03-22 00:14:00,
2013-03-21 20:19:00,26.4,18.9,29.15,NW,311,5.8,5.8,73,0.00,CLR,,0.01,WeatherDisplay:10.37,2013-03-22 00:19:00,
2013-03-21 20:24:00,26.4,18.9,29.15,WNW,282,4.6,4.6,73,0.00,CLR,,0.01,WeatherDisplay:10.37,2013-03-22 00:24:00,
2013-03-21 20:29:00,26.6,19.4,29.16,West,280,6.9,6.9,74,0.00,CLR,,0.01,WeatherDisplay:10.37,2013-03-22 00:29:00,
2013-03-21 20:34:00,26.7,19.5,29.15,West,272,6.9,6.9,74,0.00,CLR,,0.01,WeatherDisplay:10.37,2013-03-22 00:34:00,
2013-03-21 20:39:00,26.7,19.5,29.15,WNW,282,5.8,5.8,74,0.00,CLR,,0.01,WeatherDisplay:10.37,2013-03-22 00:39:00,
2013-03-21 20:44:00,26.9,20.0,29.16,West,265,5.8,5.8,75,0.00,CLR,,0.01,WeatherDisplay:10.37,2013-03-22 00:44:00,
2013-03-21 20:49:00,26.9,20.0,29.16,West,278,4.6,4.6,75,0.00,CLR,,0.01,WeatherDisplay:10.37,2013-03-22 00:49:00,
2013-03-21 20:54:00,26.9,20.3,29.15,West,278,6.1,6.1,76,0.00,CLR,,0.01,WeatherDisplay:10.37,2013-03-22 00:54:00,
2013-03-21 20:59:00,26.9,20.7,29.16,WNW,282,3.5,3.5,77,0.00,CLR,,0.01,WeatherDisplay:10.37,2013-03-22 00:59:00,
2013-03-21 21:04:00,26.7,20.5,29.16,West,265,7.7,7.7,77,0.00,CLR,,0.01,WeatherDisplay:10.37,2013-03-22 01:04:00,
2013-03-21 21:09:00,26.6,20.4,29.16,NW,305,6.9,6.9,77,0.00,CLR,,0.01,WeatherDisplay:10.37,2013-03-22 01:09:00,
2013-03-21 21:14:00,26.4,19.9,29.16,NE,47,8.1,8.1,76,0.00,CLR,,0.01,WeatherDisplay:10.37,2013-03-22 01:14:00,
2013-03-21 21:19:00,26.4,20.2,29.15,West,278,8.1,8.1,77,0.00,CLR,,0.01,WeatherDisplay:10.37,2013-03-22 01:19:00,
2013-03-21 21:24:00,26.2,19.7,29.15,WNW,284,6.5,6.5,76,0.00,CLR,,0.01,WeatherDisplay:10.37,2013-03-22 01:24:00,
2013-03-21 21:29:00,26.4,19.9,29.16,WNW,299,7.5,7.5,76,0.00,CLR,,0.01,WeatherDisplay:10.37,2013-03-22 01:29:00,
2013-03-21 21:34:00,26.2,19.4,29.16,WNW,291,8.3,8.3,75,0.00,CLR,,0.01,WeatherDisplay:10.37,2013-03-22 01:34:00,
2013-03-21 21:39:00,26.0,18.8,29.16,NW,309,8.1,8.1,74,0.00,CLR,,0.01,WeatherDisplay:10.37,2013-03-22 01:39:00,
2013-03-21 21:44:00,25.8,18.7,29.16,WNW,282,6.5,6.5,74,0.00,CLR,,0.01,WeatherDisplay:10.37,2013-03-22 01:44:00,
2013-03-21 21:49:00,25.8,18.3,29.16,WNW,284,9.7,9.7,73,0.00,CLR,,0.01,WeatherDisplay:10.37,2013-03-22 01:49:00,
2013-03-21 21:54:00,25.7,17.9,29.16,NW,311,10.4,10.4,72,0.00,CLR,,0.01,WeatherDisplay:10.37,2013-03-22 01:54:00,
2013-03-21 21:59:00,25.7,17.9,29.16,WNW,282,10.4,10.4,72,0.00,CLR,,0.01,WeatherDisplay:10.37,2013-03-22 01:59:00,
2013-03-21 22:04:00,25.5,17.7,29.16,WNW,287,5.2,5.2,72,0.00,CLR,,0.01,WeatherDisplay:10.37,2013-03-22 02:04:00,
2013-03-21 22:09:00,25.3,17.5,29.17,West,280,6.9,6.9,72,0.00,CLR,,0.01,WeatherDisplay:10.37,2013-03-22 02:09:00,
2013-03-21 22:14:00,25.3,17.9,29.16,WNW,282,5.8,5.8,73,0.00,CLR,,0.01,WeatherDisplay:10.37,2013-03-22 02:14:00,
2013-03-21 22:19:00,25.1,17.7,29.16,NW,305,6.5,6.5,73,0.00,CLR,,0.01,WeatherDisplay:10.37,2013-03-22 02:19:00,
2013-03-21 22:24:00,25.1,17.3,29.17,WNW,299,4.9,4.9,72,0.00,CLR,,0.01,WeatherDisplay:10.37,2013-03-22 02:24:00,
2013-03-21 22:29:00,24.8,17.4,29.16,West,263,6.9,6.9,73,0.00,CLR,,0.01,WeatherDisplay:10.37,2013-03-22 02:29:00,
2013-03-21 22:34:00,24.8,17.4,29.16,WNW,296,6.9,6.9,73,0.00,CLR,,0.01,WeatherDisplay:10.37,2013-03-22 02:34:00,
2013-03-21 22:39:00,24.9,17.5,29.17,WNW,284,6.9,6.9,73,0.00,CLR,,0.01,WeatherDisplay:10.37,2013-03-22 02:39:00,
2013-03-21 22:44:00,24.9,17.1,29.17,WNW,287,5.8,5.8,72,0.00,CLR,,0.01,WeatherDisplay:10.37,2013-03-22 02:44:00,
2013-03-21 22:49:00,24.9,17.8,29.16,WNW,298,11.5,11.5,74,0.00,CLR,,0.01,WeatherDisplay:10.37,2013-03-22 02:49:00,
2013-03-21 22:54:00,24.9,17.8,29.16,West,280,6.9,6.9,74,0.00,CLR,,0.01,WeatherDisplay:10.37,2013-03-22 02:54:00,
2013-03-21 22:59:00,25.1,18.0,29.16,WNW,301,5.8,5.8,74,0.00,CLR,,0.01,WeatherDisplay:10.37,2013-03-22 02:59:00,
2013-03-21 23:04:00,25.1,18.0,29.16,NW,316,8.1,8.1,74,0.00,CLR,,0.01,WeatherDisplay:10.37,2013-03-22 03:04:00,
2013-03-21 23:09:00,25.1,18.0,29.17,West,271,5.8,5.8,74,0.00,CLR,,0.01,WeatherDisplay:10.37,2013-03-22 03:09:00,
2013-03-21 23:14:00,25.1,18.0,29.17,WSW,257,6.9,6.9,74,0.00,CLR,,0.01,WeatherDisplay:10.37,2013-03-22 03:14:00,
2013-03-21 23:19:00,25.1,18.0,29.17,West,272,5.8,5.8,74,0.00,CLR,,0.01,WeatherDisplay:10.37,2013-03-22 03:19:00,
2013-03-21 23:24:00,25.1,18.0,29.18,West,261,6.9,6.9,74,0.00,CLR,,0.01,WeatherDisplay:10.37,2013-03-22 03:24:00,
2013-03-21 23:29:00,24.9,17.8,29.17,West,275,4.6,4.6,74,0.00,CLR,,0.01,WeatherDisplay:10.37,2013-03-22 03:29:00,
2013-03-21 23:34:00,24.8,17.7,29.17,WNW,299,4.0,4.0,74,0.00,CLR,,0.01,WeatherDisplay:10.37,2013-03-22 03:34:00,
2013-03-21 23:39:00,24.8,17.7,29.17,WSW,258,5.3,5.3,74,0.00,CLR,,0.01,WeatherDisplay:10.37,2013-03-22 03:39:00,
2013-03-21 23:44:00,24.8,17.7,29.17,WNW,282,5.8,5.8,74,0.00,CLR,,0.01,WeatherDisplay:10.37,2013-03-22 03:44:00,
2013-03-21 23:49:00,24.8,18.0,29.17,West,268,6.9,6.9,75,0.00,CLR,,0.01,WeatherDisplay:10.37,2013-03-22 03:49:00,
2013-03-21 23:54:00,24.8,17.7,29.17,West,272,6.4,6.4,74,0.00,CLR,,0.01,WeatherDisplay:10.37,2013-03-22 03:54:00,
2013-03-21 23:59:00,24.8,17.7,29.16,West,275,8.0,8.0,74,0.00,CLR,,0.01,WeatherDisplay:10.37,2013-03-22 03:59:00,